This is the latest recevied weather packets stored in our database for station/object SV9TNF-4. If no packets are shown the sender has not sent any weather packets the latest 10 day(s).
| Time | Temp. | Humidity | Pressure | Rain* | Wind** | Luminosity | Snow |
|---|---|---|---|---|---|---|---|
| 1777774264 | 13.33° C | 55% | 1015.2 hPa | 0 mm | 4.92 m/s, 323° | - | - |
| 1777773964 | 13.33° C | 55% | 1015.2 hPa | 0 mm | 4.92 m/s, 323° | - | - |
| 1777773664 | 13.33° C | 55% | 1015.2 hPa | 0 mm | 4.92 m/s, 323° | - | - |
| 1777773364 | 13.33° C | 55% | 1015.2 hPa | 0 mm | 9.83 m/s, 328° | - | - |
| 1777773064 | 13.33° C | 55% | 1015.2 hPa | 0 mm | 9.83 m/s, 328° | - | - |
| 1777772764 | 13.33° C | 55% | 1015.2 hPa | 0 mm | 9.83 m/s, 328° | - | - |
| 1777772464 | 12.78° C | 55% | 1015.2 hPa | 0 mm | 6.26 m/s, 349° | - | - |
| 1777772164 | 12.78° C | 55% | 1015.2 hPa | 0 mm | 6.26 m/s, 349° | - | - |
| 1777771863 | 12.78° C | 55% | 1015.2 hPa | 0 mm | 6.26 m/s, 349° | - | - |
| 1777771563 | 12.78° C | 56% | 1015.2 hPa | 0 mm | 11.18 m/s, 305° | - | - |
| 1777771263 | 12.78° C | 56% | 1015.2 hPa | 0 mm | 11.18 m/s, 305° | - | - |
| 1777770963 | 12.78° C | 56% | 1015.2 hPa | 0 mm | 11.18 m/s, 305° | - | - |
| 1777770663 | 12.78° C | 56% | 1015.2 hPa | 0 mm | 8.05 m/s, 307° | - | - |
| 1777770363 | 12.78° C | 56% | 1015.2 hPa | 0 mm | 8.05 m/s, 307° | - | - |
| 1777770063 | 12.78° C | 56% | 1015.2 hPa | 0 mm | 8.05 m/s, 307° | - | - |
| 1777769763 | 12.78° C | 56% | 1015.2 hPa | 0 mm | 4.92 m/s, 253° | - | - |
| 1777769462 | 12.78° C | 56% | 1015.2 hPa | 0 mm | 4.92 m/s, 253° | - | - |
| 1777769163 | 12.78° C | 56% | 1015.2 hPa | 0 mm | 4.92 m/s, 253° | - | - |
| 1777768862 | 12.78° C | 54% | 1015.2 hPa | 0 mm | 12.96 m/s, 335° | - | - |
| 1777768562 | 12.78° C | 54% | 1015.2 hPa | 0 mm | 12.96 m/s, 335° | - | - |
| 1777768262 | 12.78° C | 54% | 1015.2 hPa | 0 mm | 12.96 m/s, 335° | - | - |
| 1777767962 | 13.33° C | 54% | 1014.9 hPa | 0 mm | 22.35 m/s, 60° | - | - |
| 1777767662 | 13.33° C | 54% | 1014.9 hPa | 0 mm | 22.35 m/s, 60° | - | - |
| 1777767362 | 13.33° C | 54% | 1014.9 hPa | 0 mm | 22.35 m/s, 60° | - | - |
| 1777767062 | 13.33° C | 55% | 1014.9 hPa | 0 mm | 27.27 m/s, 350° | - | - |
* Rain latest hour (hover to see other rain measurements)
** Current wind speed in m/s (hover to see current wind gust speed)